Weather Roundup
Issued by NWS

Home | Current Version | Previous Version | Graphics & Text | Print | Product List | Glossary Off
Versions: 1 2 3 4 5 6 7 8 9 10 11 12 13 14 15 16 17 18 19 20 21 22 23 24 25 26 27 28 29 30 31 32 33 34 35 36 37 38 39 40 41 42 43 44 45 46 47 48 49 50

000
NZUS93 KARX 251559
HRRWXR

CURRENT HOURLY OBSERVATIONS ACROSS
MUCH OF THE UPPER MISSISSIPPI VALLEY
NATIONAL WEATHER SERVICE LA CROSSE WI
1100 AM CDT WED APR 25 2018


...SOUTHEAST MINNESOTA...


CITY           SKY/WX    TMP DP  RH WIND       PRES   REMARKS
ROCHESTER      FAIR      49  33  54 VRB5      30.21F
ROCHESTER/MAYO FAIR      48  29  47 W6        30.21F
WINONA         FAIR      48  32  53 CALM      30.19F
AUSTIN         FAIR      46  36  66 N6        30.20F
ALBERT LEA     FAIR      45  32  61 N6        30.22F
DODGE CENTER   FAIR      46  30  53 NW3       30.21S
PRESTON        FAIR      47  33  57 NW5       30.20F
OWATONNA       FAIR      46  30  53 CALM      30.22F
FARIBAULT      NOT AVBL
$$

...ELSEWHERE IN MINNESOTA...


CITY           SKY/WX    TMP DP  RH WIND       PRES   REMARKS
MINNEAPOLIS    FAIR      47  27  45 CALM      30.24F
INTNL FALLS    FAIR      50  23  34 SW12      30.12F
DULUTH         FAIR      45  24  43 NW3       30.18F
RED WING       FAIR      48  25  40 SW6       30.22S
REDWOOD FALLS  SUNNY     46  30  53 SW3       30.25F
MANKATO        FAIR      46  30  53 VRB6      30.25F
WORTHINGTON    SUNNY     45  32  60 VRB6      30.25F
FAIRMONT       SUNNY     44  35  70 N7        30.24F
$$

...SOUTHWEST WISCONSIN...


CITY           SKY/WX    TMP DP  RH WIND       PRES   REMARKS
LA CROSSE      FAIR      50  35  56 W9        30.20F
PRAIRIE DU CHI FAIR      52  34  50 NW7       30.18S
BOSCOBEL       FAIR      56  33  42 N8        30.17F
LONE ROCK      NOT AVBL
PLATTEVILLE    FAIR      53  35  51 NE10      30.16F
FORT MC COY    FAIR      48  32  55 NW8       30.19F
MAUSTON-NEW LI FAIR      47  32  56 N7        30.18S
VIROQUA        FAIR      49  35  59 N5        30.17F
WIS DELLS      FAIR      48  29  48 CALM      30.16F
$$

...ELSEWHERE IN WISCONSIN...


CITY           SKY/WX    TMP DP  RH WIND       PRES   REMARKS
MILWAUKEE      FAIR      49  31  49 NE15G23   30.13S
MADISON        FAIR      51  33  50 N10G23    30.14F
GREEN BAY      FAIR      45  32  60 N10G17    30.15F
EAU CLAIRE     NOT AVBL
BLACK RVR FLS  FAIR      49  27  41 NW7       30.20S
MEDFORD        FAIR      40  29  63 N6        30.17F
WAUSAU         FAIR      43  28  55 VRB3      30.15F
WIS RAPIDS     FAIR      48  27  44 VRB5      30.18F
MARSHFIELD     FAIR      44  29  55 VRB3      30.17S
RICE LAKE      FAIR      43  27  52 W5        30.23S
$$

...NORTHEAST IOWA...


CITY           SKY/WX    TMP DP  RH WIND       PRES   REMARKS
WATERLOO       FAIR      56  33  42 NE12      30.17F
DUBUQUE        FAIR      53  34  48 NE13      30.15F
DECORAH        FAIR      50  34  53 N7G15     30.17F
MASON CITY     SUNNY     51  35  54 N5        30.21F
CHARLES CITY   FAIR      52  32  46 NE8       30.19F
OELWEIN        FAIR      54  32  43 NE14G20   30.17F
$$

...ELSEWHERE IN IOWA...


CITY           SKY/WX    TMP DP  RH WIND       PRES   REMARKS
DES MOINES     CLOUDY    56  32  40 N13       30.19S
IOWA CITY      FAIR      57  34  41 N8        30.17F
FORT DODGE     SUNNY     52  35  52 N8        30.21F
MARSHALLTOWN   MOSUNNY   55  32  41 NE10      30.17F
CEDAR RAPIDS   FAIR      56  34  43 N8        30.15F
$$

...NORTHERN ILLINOIS...


CITY           SKY/WX    TMP DP  RH WIND       PRES   REMARKS
CHICAGO-OHARE  FAIR      51  29  42 NE21G26   30.11F
CHICAGO-MIDWAY FAIR      52  33  48 NE16G24   30.11F
MOLINE         FAIR      57  36  45 NE8       30.13S
ROCKFORD       FAIR      55  32  41 NE13      30.14F
PEORIA         FAIR      55  38  52 NE10G18   30.11R
$$

NOTE: "FAIR" INDICATES FEW OR NO CLOUDS BELOW 12,000 FEET WITH NO
SIGNIFICANT WEATHER AND/OR OBSTRUCTIONS TO VISIBILITY. WIND
SPEEDS ARE IN MILES-PER-HOUR.




USA.gov is the U.S. government's official web portal to all federal, state and local government web resources and services.